ES2JT Weather Reports


time (UTC)temp
C
wind
direction
speed
KPH
gust
KPH
rain 1hr
cm
rain 24hr
cm
rain mn
cm
humidity
%
barometer
mb
20260506050625 7 264 16.1 22.5 0.00 0.00 0.00 83 1007.3
20260506044825 6 261 12.9 19.3 0.00 0.00 0.00 90 1007.2
20260506043925 5 325 14.5 19.3 0.00 0.00 0.00 92 1007.0
20260506043025 5 297 14.5 19.3 0.00 0.00 0.00 93 1006.8
20260506042125 5 242 11.3 19.3 0.00 0.00 0.00 94 1007.0
20260506041440 5 232 11.3 16.1 0.00 0.00 0.00 94 1006.7
20260506040325 5 235 9.7 12.9 0.00 0.00 0.00 95 1006.5
20260506035425 5 240 9.7 17.7 0.00 0.00 0.00 96 1006.5
20260506034525 5 294 12.9 19.3 0.00 0.00 0.00 98 1006.4
20260506033625 4 260 12.9 19.3 0.00 0.00 0.00 99 1006.4
20260506032726 3 267 9.7 12.9 0.00 0.00 0.00 99 1006.2
20260506031825 3 265 9.7 12.9 0.00 0.00 0.00 99 1006.2
20260506030926 3 243 6.4 12.9 0.00 0.00 0.00 99 1006.3
20260506030025 2 250 4.8 6.4 0.00 0.00 0.00 97 1005.9
20260506025125 1 232 3.2 6.4 0.00 0.00 0.00 97 1005.9
20260506024227 1 223 3.2 4.8 0.00 0.00 0.00 97 1005.8
20260506023325 1 251 3.2 6.4 0.00 0.00 0.00 97 1005.7
20260506022638 1 260 3.2 4.8 0.00 0.00 0.00 97 1005.5
20260506021525 1 208 4.8 6.4 0.00 0.00 0.00 97 1005.6
20260506020626 1 221 3.2 3.2 0.00 0.00 0.00 97 1005.5
20260506015725 1 212 3.2 3.2 0.00 0.00 0.00 97 1005.4
20260506014825 1 248 3.2 3.2 0.00 0.00 0.00 96 1005.1
20260506013925 1 275 3.2 4.8 0.00 0.00 0.00 96 1005.0
20260506013237 2 269 4.8 6.4 0.00 0.00 0.00 95 1005.1
20260506012335 2 269 4.8 6.4 0.00 0.00 0.00 95 1005.3
20260506011226 2 261 4.8 6.4 0.00 0.00 0.00 96 1005.0
20260506010325 2 274 6.4 6.4 0.00 0.00 0.00 99 1005.0
20260506005426 2 275 6.4 8.0 0.00 0.00 0.00 99 1004.9
20260506004739 2 257 6.4 8.0 0.00 0.00 0.00 99 1005.0
20260506003626 3 256 6.4 8.0 0.00 0.00 0.00 99 1004.7
20260506002727 3 271 6.4 8.0 0.00 0.00 0.00 98 1004.7
20260506001826 3 234 6.4 9.7 0.00 0.00 0.00 98 1004.7
20260506000925 3 262 4.8 8.0 0.00 0.00 0.00 98 1004.6
20260506000026 3 258 4.8 8.0 0.00 0.00 0.00 98 1004.4
20260505235125 3 270 6.4 8.0 0.00 0.00 0.00 97 1004.4
20260505234441 3 264 6.4 11.3 0.00 0.00 0.00 97 1004.2
20260505233325 3 254 8.0 12.9 0.00 0.00 0.00 97 1004.2
20260505232635 3 263 8.0 12.9 0.00 0.00 0.00 97 1004.1
20260505231526 3 282 8.0 11.3 0.00 0.13 0.00 95 1004.1
20260505230625 3 267 9.7 14.5 0.00 0.13 0.00 95 1004.2
20260505225726 4 276 11.3 14.5 0.00 0.13 0.00 95 1004.2
20260505225035 4 263 11.3 14.5 0.00 0.13 0.00 94 1004.0
20260505223925 4 275 9.7 17.7 0.00 0.13 0.00 94 1004.2
20260505223025 4 274 11.3 12.9 0.00 0.13 0.00 93 1004.0
20260505222126 4 266 11.3 16.1 0.00 0.13 0.00 93 1003.8
20260505221227 4 286 12.9 17.7 0.00 0.13 0.00 93 1003.8
20260505220326 4 280 12.9 17.7 0.00 0.13 0.00 92 1003.7
20260505215425 4 273 12.9 17.7 0.00 0.13 0.00 91 1003.8
20260505214525 4 292 12.9 17.7 0.00 0.13 0.00 90 1003.5
20260505213626 4 259 12.9 16.1 0.00 0.13 0.00 90 1003.7
20260505212941 4 271 12.9 16.1 0.00 0.13 0.00 90 1003.6
20260505211826 4 266 16.1 22.5 0.00 0.13 0.00 90 1003.6
20260505210925 4 277 14.5 17.7 0.00 0.13 0.00 91 1003.4
20260505210025 4 277 14.5 22.5 0.00 0.13 0.00 92 1003.6
20260505205125 4 275 16.1 19.3 0.00 0.13 0.13 93 1003.4
20260505204225 4 300 14.5 17.7 0.00 0.13 0.13 94 1003.3
20260505203325 4 285 12.9 17.7 0.00 0.13 0.13 94 1003.1
20260505202426 4 277 9.7 12.9 0.00 0.13 0.13 94 1003.2
20260505201525 4 260 16.1 19.3 0.00 0.13 0.13 94 1003.1
20260505200625 5 245 16.1 22.5 0.00 0.13 0.13 93 1002.8
20260505195725 5 271 17.7 22.5 0.00 0.13 0.13 92 1002.8
20260505195037 5 273 16.1 19.3 0.00 0.13 0.13 92 1003.0
20260505193926 5 281 19.3 22.5 0.00 0.13 0.13 89 1002.9
20260505193025 5 259 17.7 25.7 0.00 0.13 0.13 87 1003.0
20260505192338 5 280 19.3 27.4 0.00 0.13 0.13 85 1002.7
20260505191227 5 286 20.9 27.4 0.00 0.13 0.13 81 1002.6
20260505190325 5 280 17.7 24.1 0.00 0.13 0.13 79 1002.4
20260505185425 5 269 14.5 20.9 0.00 0.13 0.13 78 1002.5
20260505184526 5 278 16.1 20.9 0.00 0.13 0.13 76 1002.4
20260505183625 5 304 20.9 25.7 0.00 0.13 0.13 75 1002.4
20260505182937 5 298 19.3 25.7 0.00 0.13 0.13 76 1002.1
20260505181825 5 267 17.7 19.3 0.00 0.13 0.13 77 1002.1
20260505180925 5 286 16.1 19.3 0.00 0.13 0.13 77 1001.9
20260505180025 6 285 17.7 22.5 0.00 0.13 0.13 75 1001.9
20260505175337 6 287 19.3 27.4 0.00 0.13 0.13 74 1001.9
20260505174226 6 298 24.1 29.0 0.00 0.13 0.13 73 1001.9
20260505173325 6 281 20.9 29.0 0.00 0.13 0.13 71 1001.8
20260505172425 7 284 22.5 27.4 0.00 0.13 0.13 69 1002.0
20260505171525 7 271 20.9 27.4 0.00 0.13 0.13 70 1001.9
20260505170625 7 255 19.3 24.1 0.00 0.13 0.13 70 1001.8
20260505165725 7 262 24.1 27.4 0.00 0.13 0.13 68 1001.8
20260505165038 7 279 24.1 29.0 0.00 0.13 0.13 68 1001.7
20260505163926 7 275 24.1 35.4 0.00 0.13 0.13 67 1001.8
20260505163238 7 277 25.7 35.4 0.00 0.13 0.13 66 1001.8
20260505162125 7 303 25.7 37.0 0.00 0.13 0.13 65 1002.0
20260505161227 7 287 27.4 40.2 0.00 0.13 0.13 64 1002.0
20260505160326 8 279 27.4 37.0 0.00 0.13 0.13 64 1001.9
20260505152727 7 257 24.1 30.6 0.00 0.13 0.13 63 1001.5
20260505151825 8 290 22.5 32.2 0.00 0.13 0.13 63 1001.4
20260505150925 8 291 24.1 30.6 0.00 0.13 0.13 64 1001.6
20260505124525 9 288 29.0 38.6 0.00 0.13 0.13 66 1001.0
20260505123625 9 311 29.0 37.0 0.00 0.13 0.13 66 1000.8
20260505122941 10 303 29.0 33.8 0.00 0.13 0.13 63 1000.7
20260505121825 10 303 25.7 35.4 0.00 0.13 0.13 61 1000.8
20260505120925 10 327 22.5 33.8 0.00 0.13 0.13 62 1000.6
20260505120025 10 312 24.1 35.4 0.00 0.13 0.13 63 1000.6
20260505115125 10 324 24.1 32.2 0.00 0.13 0.13 64 1000.5
20260505114438 10 315 24.1 37.0 0.00 0.13 0.13 65 1000.4
20260505113326 10 308 27.4 33.8 0.00 0.15 0.13 66 1000.4
20260505112425 10 302 30.6 40.2 0.00 0.18 0.13 66 1000.4
20260505111526 10 313 30.6 38.6 0.00 0.20 0.13 65 1000.1
20260505110625 10 271 29.0 40.2 0.00 0.20 0.13 63 1000.3
20260505102125 11 267 27.4 38.6 0.00 0.36 0.13 63 999.7
20260505101436 10 283 27.4 32.2 0.00 0.38 0.13 64 999.7
20260505100539 10 313 25.7 38.6 0.00 0.38 0.13 62 999.5
20260505095636 11 300 32.2 38.6 0.00 0.38 0.13 61 999.2
20260505094525 11 288 27.4 35.4 0.00 0.43 0.13 58 999.2
20260505093625 11 305 29.0 43.5 0.00 0.43 0.13 58 999.0
20260505092727 11 279 29.0 45.1 0.00 0.43 0.13 58 998.8
20260505091825 11 291 32.2 45.1 0.00 0.43 0.13 59 998.8
20260505090926 11 294 33.8 43.5 0.00 0.46 0.13 60 998.8
20260505090025 11 289 29.0 38.6 0.00 0.46 0.13 59 998.5
20260505085125 12 282 32.2 38.6 0.00 0.46 0.13 58 998.4
20260505084226 11 301 35.4 43.5 0.00 0.46 0.13 59 998.3
20260505083325 11 287 30.6 43.5 0.00 0.46 0.13 59 998.4
20260505082425 11 283 27.4 38.6 0.00 0.46 0.13 60 998.1
20260505081525 11 291 30.6 41.8 0.00 0.46 0.13 60 998.3
20260505080625 11 307 29.0 37.0 0.00 0.46 0.13 61 998.3
20260505075727 11 279 29.0 37.0 0.00 0.46 0.13 61 998.0
20260505074825 11 302 32.2 43.5 0.00 0.46 0.13 60 998.2
20260505073926 11 280 33.8 41.8 0.00 0.46 0.13 59 997.9
20260505073027 11 279 29.0 37.0 0.00 0.46 0.13 57 998.0
20260505072126 12 295 25.7 33.8 0.00 0.46 0.13 55 997.9
20260505071227 12 302 25.7 33.8 0.00 0.46 0.13 55 997.7
20260505070325 12 282 22.5 35.4 0.00 0.46 0.13 55 997.6
20260505065425 12 264 20.9 33.8 0.00 0.46 0.13 55 997.5
20260505064525 12 285 29.0 35.4 0.00 0.46 0.13 58 997.6
20260505063625 12 263 22.5 27.4 0.00 0.46 0.13 57 997.7
20260505061802 12 254 24.1 33.8 0.00 0.46 0.13 57 997.6
20260505060904 12 235 19.3 33.8 0.00 0.46 0.13 58 997.4
20260505060003 12 236 20.9 30.6 0.00 0.46 0.13 60 997.4